TJS-9

Last updated on Tue Sep 22 2026 00:03:15 GMT+0000 (Coordinated Universal Time)

1 50574U 21135A 26264.64325163 -.00000302 00000+0 00000+0 0 9997 2 50574 0.0262 110.5423 0005208 228.8770 29.9085 1.00274117 17394
UTC large
Height (km)
Speed (km/s)
/
Latitude / Longitude
Inclination (degrees)
Orbital Period (minutes)
Azimuth
Elevation
Range (km)
Doppler Factor

Next 0 passes for location: London (51.5072 / 0.1276)

No passes found over London.
TJS-9